Regional Weather Roundup
Issued by NWS Burlington, VT

Home | Current Version | Previous Version | Text Only | Print | Product List | Glossary On
Versions: 1 2 3 4 5 6 7 8 9 10 11 12 13 14 15 16 17 18 19 20 21 22 23 24 25 26 27 28 29 30 31 32 33 34 35 36 37 38 39 40 41 42 43 44 45 46 47 48 49 50
160
ASUS41 KBTV 281210
RWRBTV
VERMONT REGIONAL WEATHER ROUNDUP
NATIONAL WEATHER SERVICE BURLINGTON VT
700 AM EST TUE FEB 28 2017

NOTE: "FAIR" INDICATES FEW OR NO CLOUDS BELOW 12,000 FEET WITH NO
SIGNIFICANT WEATHER AND/OR OBSTRUCTIONS TO VISIBILITY.

* THESE REPORTS ARE NOT UNDER NWS QUALITY CONTROL AND/OR DO NOT
  REPORT WEATHER SUCH AS PRECIPITATION AND FOG.

VTZ001>019-281300-
_____VERMONT_____


CITY           SKY/WX    TMP DP  RH WIND       PRES   REMARKS
BURLINGTON     MOCLDY    29  25  85 NE3       30.36S
6HR MIN TEMP:  29; 6HR MAX TEMP:  34;

MONTPELIER     CLOUDY    28  25  88 CALM      30.38R
6HR MIN TEMP:  28; 6HR MAX TEMP:  39;

MORRISVILLE    CLOUDY    24  21  88 SW3       30.38R
6HR MIN TEMP:  23; 6HR MAX TEMP:  33;

ST. JOHNSBURY*   N/A     25  24  96 MISG      30.36R
6HR MIN TEMP:  25; 6HR MAX TEMP:  29;

LYNDONVILLE*   FAIR      26  24  91 CALM      30.36R
6HR MIN TEMP:  25; 6HR MAX TEMP:  36;

MIDDLEBURY*    CLOUDY    31  21  65 CALM      30.36R
6HR MIN TEMP:  31; 6HR MAX TEMP:  36;

RUTLAND*       CLOUDY    34  24  67 SE7       30.36R WCI  28
6HR MIN TEMP:  33; 6HR MAX TEMP:  41;

SPRINGFIELD    CLOUDY    29  24  82 CALM      30.38R
6HR MIN TEMP:  26; 6HR MAX TEMP:  29;

HIGHGATE*      FAIR      25  24  94 CALM      30.37S
6HR MIN TEMP:  24; 6HR MAX TEMP:  34;

NEWPORT*       FAIR      26  22  85 CALM      30.36R
6HR MIN TEMP:  23; 6HR MAX TEMP:  34;

BENNINGTON     CLOUDY    32  25  75 N5        30.34S WCI  27
6HR MIN TEMP:  28; 6HR MAX TEMP:  34;

SUTTON*          N/A     27 N/A N/A MISG        N/A

_____LAKE CHAMPLAIN_____


CITY           SKY/WX    TMP DP  RH WIND       PRES   REMARKS
BURTON ISLAND*   N/A     32  27  80 E5          N/A  WCI  27
COLCHESTER RF*   N/A     34  30  86 W5          N/A  WCI  30
DIAMOND ISL*     N/A     37  30  75 S3          N/A

$$

NYZ007-026>031-035-052-083-087-281300-
_____NORTHERN NEW YORK_____


CITY           SKY/WX    TMP DP  RH WIND       PRES   REMARKS
PLATTSBURGH    PTCLDY    25  23  92 CALM      30.36R
6HR MIN TEMP:  25; 6HR MAX TEMP:  30;

SARANAC LAKE   MOCLDY    23  22  96 CALM      30.28S
6HR MIN TEMP:  20; 6HR MAX TEMP:  30;

MASSENA        PTCLDY    21  18  88 CALM      30.35F
6HR MIN TEMP:  20; 6HR MAX TEMP:  25;

OGDENSBURG*    FAIR      25  24  96 E3        30.31F
6HR MIN TEMP:  24; 6HR MAX TEMP:  29;

POTSDAM*       MOCLDY    27  27 100 CALM      30.31F
WATERTOWN      CLOUDY    31  29  92 E6        30.29F FOG     WCI  25
6HR MIN TEMP:  29; 6HR MAX TEMP:  34;

FT DRUM        MOCLDY    33  26  78 E6        30.28F WCI  27
6HR MIN TEMP:  32; 6HR MAX TEMP:  35;

ALBANY         CLOUDY    37  27  67 CALM      30.36F
6HR MIN TEMP:  30; 6HR MAX TEMP:  38; 6HR PCP: TRACE;

GLENS FALLS    CLOUDY    34  25  69 NW3       30.37R
6HR MIN TEMP:  29; 6HR MAX TEMP:  36;


$$
NHZ002-005-011-281300-
_____NEW HAMPSHIRE_____


CITY           SKY/WX    TMP DP  RH WIND       PRES   REMARKS
LEBANON        CLOUDY    29  26  89 NE5       30.37R WCI  24
6HR MIN TEMP:  25; 6HR MAX TEMP:  30;

KEENE          CLOUDY    30  26  85 NE3       30.39R
6HR MIN TEMP:  26; 6HR MAX TEMP:  30;

MT WASHINGTON  FOG       16  16 100 W40         N/A  VSB 0   WCI  -7
6HR MIN TEMP:  14; 6HR MAX TEMP:  17; 6HR PCP:  0.02;

PLYMOUTH       FAIR      25  24  97 CALM      30.38R
6HR MIN TEMP:  24; 6HR MAX TEMP:  27;

WHITEFIELD     CLOUDY    23  18  81 CALM      30.35R
6HR MIN TEMP:  21; 6HR MAX TEMP:  29;


$$

_____REGIONAL QUEBEC LOCATIONS_____


CITY           SKY/WX    TMP DP  RH WIND       PRES   REMARKS
MONTREAL       MOCLDY    25  21  86 CALM      30.36S
QUEBEC CITY    MOCLDY    16   9  73 N9        30.38R WCI   4
SHERBROOKE     CLEAR     21  19  93 E3        30.35S

_____REGIONAL ONTARIO LOCATIONS_____


CITY           SKY/WX    TMP DP  RH WIND       PRES   REMARKS
OTTAWA         MOCLDY    25  18  74 NE6       30.31F WCI  18

______KEY______
VSB  - VISIBILITY IN MILES
WCI  - WIND CHILL INDEX
HX   - HEAT INDEX
$$
NNNN




USA.gov is the U.S. government's official web portal to all federal, state and local government web resources and services.